Location: Unspecified
(0.0000°N, 0.0000°E)
Time: 02:42:51
(UTC+00:00)

GONETS D1M 1 - Pass Details

Date: 26 May 2026
Orbit: 1435 x 1448 km, 82.5° (Epoch: 9 June)

Event Time Altitude Azimuth Distance (km) Brightness Sun altitude
Rises 04:22:57 0° 170° (S) 4,538 9.1 -21.9°
Reaches altitude 10° 04:25:58 10° 164° (SSE) 3,560 8.6 -21.2°
Maximum altitude 04:34:02 46° 93° (E) 1,855 7.6 -19.3°
Drops below altitude 10° 04:42:02 10° 23° (NNE) 3,554 9.3 -17.5°
Sets 04:45:01 0° 17° (NNE) 4,530 9.9 -16.8°
